Weather History for Weatherford, OK

Change the Weather History Date:

Sunday, October 6, 2013

  Actual Average (KJWG) Record (KJWG)
Temperature  
Mean Temperature 58 °F -  
Max Temperature 71 °F 76 °F 91 °F (1963)
Min Temperature 44 °F 51 °F 35 °F (2001)
Degree Days  
Heating Degree Days 8    
Growing Degree Days 8 (Base 50)    
Moisture  
Dew Point 34 °F    
Average Humidity 45    
Maximum Humidity 71    
Minimum Humidity 23    
Precipitation  
Precipitation 0.00 in - - ()
Sea Level Pressure  
Sea Level Pressure 30.11 in    
Wind  
Wind Speed 10 mph (NW)    
Max Wind Speed 23 mph    
Max Gust Speed 30 mph    
Visibility 10 miles    
Events      
Averages and records for this station are not official NWS values.
T = Trace of Precipitation, MM = Missing Value Source: NWS Daily Summary

Daily Weather History Graph

Daily Weather History Graph

Search for Another Location

Airport:

Trip Planner

Search our weather history database for the weather conditions in past years. The results will help you decide how hot, cold, wet, or windy it might be!

Date:

Astronomy

Oct. 06, 2013 Rise Set
Actual Time 7:33 AM CDT 7:10 PM CDT
Civil Twilight 7:08 AM CDT 7:36 PM CDT
Nautical Twilight 6:38 AM CDT 8:05 PM CDT
Astronomical Twilight 6:09 AM CDT 8:35 PM CDT
Moon 9:15 AM CDT (10/6) 8:16 PM CDT (10/6)
Length of Visible Light 12h 28m
Length of Day
11h 37m
Waxing Crescent, 3% of the Moon is Illuminated
Oct 6
Waxing Crescent
Oct 11
First Quarter
Oct 18
Full
Oct 26
Last Quarter
Nov 3
New

Hourly Weather History & Observations

Time (CDT) Temp. Windchill Dew Point Humidity Pressure Visibility Wind Dir Wind Speed Gust Speed Precip Events Conditions
12:15 AM 50.0 °F - 37.4 °F 62% 30.10 in 10.0 mi West 5.8 mph - N/A   Clear
12:35 AM 50.0 °F - 37.4 °F 62% 30.10 in 10.0 mi WNW 3.5 mph - N/A   Clear
12:55 AM 48.2 °F - 37.4 °F 66% 30.10 in 10.0 mi NW 4.6 mph - N/A   Clear
1:15 AM 51.8 °F - 37.4 °F 58% 30.10 in 10.0 mi WNW 11.5 mph - N/A   Clear
1:35 AM 51.8 °F - 35.6 °F 54% 30.11 in 10.0 mi NW 11.5 mph - N/A   Clear
1:55 AM 50.0 °F - 35.6 °F 58% 30.11 in 10.0 mi NW 9.2 mph - N/A   Clear
2:15 AM 50.0 °F - 35.6 °F 58% 30.12 in 10.0 mi NW 9.2 mph - N/A   Clear
2:35 AM 48.2 °F - 35.6 °F 62% 30.11 in 10.0 mi NW 6.9 mph - N/A   Clear
2:55 AM 48.2 °F - 35.6 °F 62% 30.11 in 10.0 mi NW 6.9 mph - N/A   Clear
3:15 AM 48.2 °F - 33.8 °F 58% 30.10 in 10.0 mi WNW 5.8 mph - N/A   Clear
3:35 AM 46.4 °F 44.3 °F 33.8 °F 62% 30.10 in 10.0 mi West 4.6 mph - N/A   Clear
3:55 AM 48.2 °F - 32.0 °F 54% 30.09 in 10.0 mi West 11.5 mph - N/A   Clear
4:15 AM 46.4 °F 41.9 °F 33.8 °F 62% 30.09 in 10.0 mi West 9.2 mph - N/A   Clear
4:35 AM 46.4 °F 40.1 °F 32.0 °F 57% 30.10 in 10.0 mi WNW 15.0 mph 20.7 mph N/A   Clear
4:55 AM 46.4 °F 40.1 °F 30.2 °F 53% 30.10 in 10.0 mi NW 15.0 mph 20.7 mph N/A   Clear
5:15 AM 46.4 °F 40.7 °F 30.2 °F 53% 30.11 in 10.0 mi NW 12.7 mph - N/A   Clear
5:35 AM 44.6 °F 40.2 °F 32.0 °F 61% 30.11 in 10.0 mi NW 8.1 mph - N/A   Clear
5:55 AM 46.4 °F 41.9 °F 30.2 °F 53% 30.11 in 10.0 mi WNW 9.2 mph - N/A   Clear
6:15 AM 44.6 °F 39.2 °F 30.2 °F 57% 30.12 in 10.0 mi NW 10.4 mph - N/A   Clear
6:35 AM 46.4 °F 41.1 °F 30.2 °F 53% 30.12 in 10.0 mi NW 11.5 mph - N/A   Clear
6:55 AM 46.4 °F 40.4 °F 30.2 °F 53% 30.13 in 10.0 mi NNW 13.8 mph 18.4 mph N/A   Clear
7:15 AM 46.4 °F 40.1 °F 30.2 °F 53% 30.13 in 10.0 mi NNW 15.0 mph - N/A   Clear
7:35 AM 46.4 °F 40.4 °F 32.0 °F 57% 30.14 in 10.0 mi NW 13.8 mph - N/A   Clear
7:55 AM 46.4 °F 41.1 °F 32.0 °F 57% 30.14 in 10.0 mi NW 11.5 mph - N/A   Clear
8:15 AM 46.4 °F 41.5 °F 32.0 °F 57% 30.15 in 10.0 mi NW 10.4 mph - N/A   Clear
8:35 AM 48.2 °F - 32.0 °F 54% 30.15 in 10.0 mi NW 10.4 mph - N/A   Clear
8:55 AM 50.0 °F - 32.0 °F 50% 30.15 in 10.0 mi NW 11.5 mph - N/A   Clear
9:15 AM 51.8 °F - 32.0 °F 47% 30.16 in 10.0 mi NW 13.8 mph - N/A   Clear
9:35 AM 53.6 °F - 32.0 °F 44% 30.17 in 10.0 mi NW 13.8 mph 19.6 mph N/A   Clear
9:55 AM 55.4 °F - 32.0 °F 41% 30.17 in 10.0 mi NW 13.8 mph 19.6 mph N/A   Clear
10:15 AM 57.2 °F - 32.0 °F 38% 30.17 in 10.0 mi NW 13.8 mph 20.7 mph N/A   Clear
10:35 AM 59.0 °F - 32.0 °F 36% 30.17 in 10.0 mi NNW 13.8 mph 19.6 mph N/A   Clear
10:55 AM 60.8 °F - 32.0 °F 34% 30.17 in 10.0 mi NNW 23.0 mph 27.6 mph N/A   Clear
11:15 AM 60.8 °F - 32.0 °F 34% 30.17 in 10.0 mi NNW 15.0 mph - N/A   Clear
11:35 AM 60.8 °F - 32.0 °F 34% 30.17 in 10.0 mi NNW 16.1 mph 25.3 mph N/A   Clear
11:55 AM 62.6 °F - 32.0 °F 32% 30.17 in 10.0 mi NW 13.8 mph - N/A   Clear
12:15 PM 62.6 °F - 32.0 °F 32% 30.17 in 10.0 mi NNW 13.8 mph - N/A   Clear
12:35 PM 64.4 °F - 30.2 °F 28% 30.16 in 10.0 mi NW 16.1 mph 23.0 mph N/A   Clear
12:55 PM 66.2 °F - 32.0 °F 28% 30.15 in 10.0 mi NNW 19.6 mph 24.2 mph N/A   Clear
1:15 PM 66.2 °F - 32.0 °F 28% 30.14 in 10.0 mi NNW 16.1 mph 24.2 mph N/A   Clear
1:35 PM 68.0 °F - 32.0 °F 26% 30.13 in 10.0 mi NW 15.0 mph 23.0 mph N/A   Clear
1:55 PM 69.8 °F - 32.0 °F 25% 30.13 in 10.0 mi WNW 16.1 mph 29.9 mph N/A   Clear
2:15 PM 69.8 °F - 32.0 °F 25% 30.11 in 10.0 mi NNW 20.7 mph 26.5 mph N/A   Clear
2:35 PM 69.8 °F - 32.0 °F 25% 30.11 in 10.0 mi NNW 20.7 mph 28.8 mph N/A   Clear
2:55 PM 69.8 °F - 32.0 °F 25% 30.10 in 10.0 mi NW 16.1 mph 26.5 mph N/A   Clear
3:15 PM 71.6 °F - 33.8 °F 25% 30.09 in 10.0 mi NNW 16.1 mph 26.5 mph N/A   Clear
3:35 PM 71.6 °F - 32.0 °F 23% 30.09 in 10.0 mi NW 17.3 mph 24.2 mph N/A   Clear
3:55 PM 71.6 °F - 33.8 °F 25% 30.08 in 10.0 mi North 15.0 mph 25.3 mph N/A   Clear
4:15 PM 71.6 °F - 33.8 °F 25% 30.08 in 10.0 mi NNW 13.8 mph 26.5 mph N/A   Clear
4:35 PM 71.6 °F - 33.8 °F 25% 30.07 in 10.0 mi NNW 13.8 mph 25.3 mph N/A   Clear
4:55 PM 71.6 °F - 33.8 °F 25% 30.06 in 10.0 mi NW 18.4 mph 26.5 mph N/A   Clear
5:15 PM 71.6 °F - 33.8 °F 25% 30.06 in 10.0 mi NNW 15.0 mph 24.2 mph N/A   Clear
5:35 PM 71.6 °F - 35.6 °F 27% 30.07 in 10.0 mi NNW 11.5 mph 19.6 mph N/A   Clear
5:55 PM 71.6 °F - 33.8 °F 25% 30.07 in 10.0 mi NNW 12.7 mph 17.3 mph N/A   Clear
6:15 PM 71.6 °F - 35.6 °F 27% 30.07 in 10.0 mi NNW 6.9 mph - N/A   Clear
6:35 PM 69.8 °F - 35.6 °F 28% 30.07 in 10.0 mi NW 6.9 mph - N/A   Clear
6:55 PM 68.0 °F - 35.6 °F 30% 30.07 in 10.0 mi NW 5.8 mph - N/A   Clear
7:15 PM 64.4 °F - 37.4 °F 37% 30.07 in 10.0 mi NNW 8.1 mph - N/A   Clear
7:35 PM 62.6 °F - 37.4 °F 39% 30.07 in 10.0 mi NW 5.8 mph - N/A   Clear
7:55 PM 62.6 °F - 37.4 °F 39% 30.07 in 10.0 mi NW 5.8 mph - N/A   Clear
8:15 PM 62.6 °F - 37.4 °F 39% 30.07 in 10.0 mi NW 4.6 mph - N/A   Clear
8:35 PM 60.8 °F - 37.4 °F 42% 30.08 in 10.0 mi SW 5.8 mph - N/A   Clear
8:55 PM 59.0 °F - 37.4 °F 45% 30.09 in 10.0 mi SW 6.9 mph - N/A   Clear
9:15 PM 59.0 °F - 39.2 °F 48% 30.09 in 10.0 mi Calm Calm - N/A   Clear
9:35 PM 57.2 °F - 39.2 °F 51% 30.10 in 10.0 mi Calm Calm - N/A   Clear
9:55 PM 55.4 °F - 41.0 °F 58% 30.10 in 10.0 mi Calm Calm - N/A   Clear
10:15 PM 53.6 °F - 41.0 °F 62% 30.11 in 10.0 mi Calm Calm - N/A   Clear
10:35 PM 53.6 °F - 42.8 °F 67% 30.11 in 10.0 mi Calm Calm - N/A   Clear
10:55 PM 53.6 °F - 41.0 °F 62% 30.11 in 10.0 mi NW 3.5 mph - N/A   Clear
11:15 PM 51.8 °F - 42.8 °F 71% 30.12 in 10.0 mi North 3.5 mph - N/A   Clear
11:35 PM 51.8 °F - 42.8 °F 71% 30.12 in 10.0 mi Calm Calm - N/A   Clear
11:55 PM 51.8 °F - 41.0 °F 67% 30.12 in 10.0 mi Calm Calm - N/A   Clear